Regional Weather Roundup
Issued by NWS Goodland, KS

Home | Current Version | Previous Version | Text Only | Print | Product List | Glossary Off
Versions: 1 2 3 4 5 6 7 8 9 10 11 12 13 14 15 16 17 18 19 20 21 22 23 24 25 26 27 28 29 30 31 32 33 34 35 36 37 38 39 40 41 42 43 44 45 46 47 48 49 50

000
ASUS43 KGLD 281308
RWRGLD

GOODLAND FORECAST AREA HOURLY WEATHER ROUNDUP
NATIONAL WEATHER SERVICE GOODLAND KS
700 AM MDT SAT MAR 28 2015

...OFFICIAL OBSERVATIONS...

CITY           SKY/WX    TMP DP  RH WIND       PRES   REMARKS
GOODLAND KS    CLEAR     41  33  73 W8        30.02R
HILL CITY KS   CLEAR     32  28  85 NE3       30.01R
IMPERIAL NEB     N/A     34  27  75 W6        30.01R
MCCOOK NEB     CLEAR     34  29  82 NE3       30.01R
AKRON CO       CLEAR     43  31  62 W12       30.04R
BURLINGTON CO  CLEAR     38  31  76 W9        30.04R
LIMON CO       CLEAR     35  28  75 CALM      30.10R
$$

...UNOFFICIAL OBSERVATIONS...

CITY           SKY/WX    TMP DP  RH WIND       PRES   REMARKS
COLBY KS       CLEAR     41  36  81 NW10      30.01R
GOVE KS          N/A     38  32  79 MISG        N/A
LENORA KS        N/A     35  32  89 MISG        N/A
NORTON KS      CLEAR     36  28  75 N3        30.01R
SHARON SPRINGS   N/A     40  33  76 NW5         N/A
TRIBUNE KS     CLEAR     43  37  81 W6        30.04R
KIT CARSON CO    N/A     44  32  63 MISG        N/A
YUMA CO          N/A     39  31  72 W7          N/A
$$



USA.gov is the U.S. government's official web portal to all federal, state and local government web resources and services.